Weather History for Fredericksburg, VA

Change the Weather History Date:

Monday, August 12, 2013

  Actual Average (KNYG) Record (KNYG)
Temperature  
Mean Temperature 80 °F -  
Max Temperature 90 °F 83 °F 93 °F (2002)
Min Temperature 69 °F 67 °F 61 °F (2006)
Cooling Degree Days 14    
Growing Degree Days 30 (Base 50)    
Moisture  
Dew Point 70 °F    
Average Humidity 75    
Maximum Humidity 100    
Minimum Humidity 45    
Precipitation  
Precipitation 0.00 in - - ()
Sea Level Pressure  
Sea Level Pressure 29.98 in    
Wind  
Wind Speed 1 mph (NNE)    
Max Wind Speed 12 mph    
Max Gust Speed -    
Visibility 9 miles    
Events Fog    
Averages and records for this station are not official NWS values.
T = Trace of Precipitation, MM = Missing Value Source: NWS Daily Summary

Daily Weather History Graph

Daily Weather History Graph

Search for Another Location

Airport:

Trip Planner

Search our weather history database for the weather conditions in past years. The results will help you decide how hot, cold, wet, or windy it might be!

Date:

Astronomy

Aug. 12, 2013 Rise Set
Actual Time 6:22 AM EDT 8:06 PM EDT
Civil Twilight 5:53 AM EDT 8:35 PM EDT
Nautical Twilight 5:19 AM EDT 9:09 PM EDT
Astronomical Twilight 4:42 AM EDT 9:45 PM EDT
Moon 12:04 PM EDT (8/12) 11:04 PM EDT (8/12)
Length of Visible Light 14h 41m
Length of Day
13h 44m
Waxing Crescent, 31% of the Moon is Illuminated
Aug 12
Waxing Crescent
Aug 14
First Quarter
Aug 20
Full
Aug 28
Last Quarter
Sep 5
New

Hourly Weather History & Observations

Time (EDT) Temp. Heat Index Dew Point Humidity Pressure Visibility Wind Dir Wind Speed Gust Speed Precip Events Conditions
3:15 AM 71.6 °F - 71.6 °F 100% 30.00 in 5.0 mi Calm Calm - N/A   Clear
3:35 AM 71.2 °F - 71.2 °F 100% 29.99 in 7.0 mi Calm Calm - N/A   Clear
3:55 AM 70.7 °F - 70.7 °F 100% 30.00 in 7.0 mi Calm Calm - N/A   Clear
4:15 AM 70.7 °F - 70.7 °F 100% 30.00 in 7.0 mi Calm Calm - N/A   Clear
4:35 AM 70.3 °F - 70.3 °F 100% 30.00 in 7.0 mi Calm Calm - N/A   Clear
4:55 AM 70.0 °F - 70.0 °F 100% 30.00 in 5.0 mi Calm Calm - N/A   Clear
5:15 AM 69.8 °F - 69.8 °F 100% 30.00 in 7.0 mi Calm Calm - N/A   Clear
5:35 AM 70.0 °F - 70.0 °F 100% 30.00 in 7.0 mi Calm Calm - N/A   Mostly Cloudy
5:55 AM 70.2 °F - 70.2 °F 100% 30.00 in 7.0 mi Calm Calm - N/A   Scattered Clouds
6:15 AM 70.2 °F - 70.2 °F 100% 30.01 in 2.5 mi Calm Calm - N/A   Mostly Cloudy
6:35 AM 70.2 °F - 70.2 °F 100% 30.01 in 0.2 mi Calm Calm - N/A Fog Fog
6:55 AM 70.7 °F - 70.7 °F 100% 30.01 in 0.2 mi Calm Calm - N/A Fog Fog
7:15 AM 70.7 °F - 70.7 °F 100% 30.01 in 0.5 mi Calm Calm - N/A Fog Fog
7:35 AM 71.1 °F - 71.1 °F 100% 30.01 in 0.8 mi Calm Calm - N/A   Overcast
7:55 AM 71.8 °F - 71.8 °F 100% 30.01 in 5.0 mi Calm Calm - N/A   Scattered Clouds
8:15 AM 72.7 °F - 72.7 °F 100% 30.01 in 5.0 mi Calm Calm - N/A   Clear
8:35 AM 73.6 °F - 73.6 °F 100% 30.01 in 7.0 mi Calm Calm - N/A   Clear
8:55 AM 75.7 °F - 73.8 °F 94% 30.01 in 10.0 mi Calm Calm - N/A   Clear
9:15 AM 77.9 °F - 74.3 °F 89% 30.01 in 10.0 mi Calm Calm - N/A   Clear
9:35 AM 80.1 °F 84.8 °F 74.5 °F 83% 30.01 in 10.0 mi Calm Calm - N/A   Clear
9:55 AM 81.9 °F 87.5 °F 73.6 °F 76% 30.01 in 10.0 mi Calm Calm - N/A   Clear
10:15 AM 83.3 °F 87.4 °F 69.8 °F 64% 30.01 in 10.0 mi North 5.8 mph - N/A   Clear
10:35 AM 84.2 °F 88.7 °F 70.5 °F 63% 30.00 in 10.0 mi North 8.1 mph - N/A   Clear
10:55 AM 84.6 °F 88.5 °F 69.3 °F 60% 30.01 in 10.0 mi North 11.5 mph - N/A   Clear
11:15 AM 84.9 °F 89.1 °F 69.4 °F 60% 30.01 in 10.0 mi North 9.2 mph - N/A   Clear
11:35 AM 86.0 °F 91.1 °F 70.7 °F 60% 30.01 in 10.0 mi North 5.8 mph - N/A   Clear
11:55 AM 86.5 °F 90.7 °F 69.3 °F 56% 30.01 in 10.0 mi NNW 5.8 mph - N/A   Clear
12:15 PM 87.4 °F 91.9 °F 69.3 °F 55% 30.00 in 10.0 mi North 3.5 mph - N/A   Clear
12:35 PM 87.4 °F 91.5 °F 68.7 °F 54% 30.00 in 10.0 mi NNE 6.9 mph - N/A   Clear
12:55 PM 86.2 °F 89.7 °F 68.2 °F 55% 30.00 in 10.0 mi Calm Calm - N/A   Scattered Clouds
1:15 PM 87.1 °F 89.9 °F 66.9 °F 51% 30.00 in 10.0 mi North 5.8 mph - N/A   Scattered Clouds
1:35 PM 87.4 °F 91.2 °F 68.5 °F 53% 29.99 in 10.0 mi North 6.9 mph - N/A   Mostly Cloudy
1:55 PM 86.7 °F 89.6 °F 67.1 °F 52% 29.99 in 10.0 mi North 8.1 mph - N/A   Scattered Clouds
2:15 PM 88.9 °F 91.4 °F 66.6 °F 47% 29.99 in 10.0 mi North 6.9 mph - N/A   Clear
2:35 PM 89.1 °F 91.3 °F 65.8 °F 46% 29.98 in 10.0 mi Calm Calm - N/A   Clear
2:55 PM 89.1 °F 92.1 °F 66.7 °F 48% 29.98 in 10.0 mi North 5.8 mph - N/A   Scattered Clouds
3:15 PM 89.2 °F 92.0 °F 66.6 °F 47% 29.98 in 10.0 mi NNW 4.6 mph - N/A   Scattered Clouds
3:35 PM 90.1 °F 92.7 °F 66.4 °F 45% 29.97 in 10.0 mi North 5.8 mph - N/A   Scattered Clouds
3:55 PM 89.2 °F 91.6 °F 66.2 °F 46% 29.96 in 10.0 mi North 3.5 mph - N/A   Scattered Clouds
4:15 PM 89.6 °F 91.8 °F 65.8 °F 45% 29.96 in 10.0 mi Calm Calm - N/A   Scattered Clouds
4:35 PM 88.9 °F 91.4 °F 66.2 °F 47% 29.95 in 10.0 mi NNE 3.5 mph - N/A   Scattered Clouds
4:55 PM 88.7 °F 91.1 °F 66.4 °F 47% 29.95 in 10.0 mi Calm Calm - N/A   Scattered Clouds
5:15 PM 89.6 °F 92.6 °F 67.1 °F 47% 29.94 in 10.0 mi East 4.6 mph - N/A   Clear
5:35 PM 88.0 °F 92.1 °F 68.9 °F 53% 29.94 in 10.0 mi ESE 4.6 mph - N/A   Clear
5:55 PM 86.7 °F 90.6 °F 68.7 °F 55% 29.94 in 10.0 mi East 3.5 mph - N/A   Clear
6:15 PM 86.0 °F 89.7 °F 68.7 °F 56% 29.94 in 10.0 mi ENE 3.5 mph - N/A   Clear
6:35 PM 85.6 °F 90.1 °F 69.6 °F 59% 29.94 in 10.0 mi Calm Calm - N/A   Clear
6:55 PM 84.9 °F 89.7 °F 70.7 °F 62% 29.94 in 10.0 mi Calm Calm - N/A   Scattered Clouds
7:15 PM 83.3 °F 89.0 °F 72.5 °F 70% 29.94 in 10.0 mi Calm Calm - N/A   Clear
7:35 PM 82.4 °F 87.9 °F 72.9 °F 73% 29.94 in 10.0 mi Calm Calm - N/A   Clear
7:55 PM 81.5 °F 86.5 °F 73.0 °F 75% 29.94 in 10.0 mi Calm Calm - N/A   Clear
8:15 PM 80.1 °F 84.1 °F 72.7 °F 78% 29.93 in 10.0 mi Calm Calm - N/A   Clear
8:35 PM 78.6 °F - 72.9 °F 82% 29.94 in 10.0 mi Calm Calm - N/A   Clear
8:55 PM 78.8 °F - 72.7 °F 81% 29.94 in 10.0 mi Calm Calm - N/A   Clear
9:15 PM 77.5 °F - 72.5 °F 84% 29.94 in 10.0 mi Calm Calm - N/A   Clear
9:35 PM 77.2 °F - 72.7 °F 86% 29.94 in 10.0 mi Calm Calm - N/A   Clear
9:55 PM 77.2 °F - 72.7 °F 86% 29.95 in 10.0 mi Calm Calm - N/A   Clear
10:15 PM 77.2 °F - 72.5 °F 85% 29.94 in 10.0 mi Calm Calm - N/A   Clear
10:35 PM 75.9 °F - 73.6 °F 92% 29.94 in 10.0 mi Calm Calm - N/A   Clear
10:55 PM 76.6 °F - 73.4 °F 90% 29.93 in 10.0 mi Calm Calm - N/A   Clear
11:15 PM 77.0 °F - 74.8 °F 93% 29.92 in 10.0 mi Calm Calm - N/A   Clear
11:35 PM 77.2 °F - 74.8 °F 92% 29.92 in 10.0 mi ESE 3.5 mph - N/A   Clear
11:55 PM 76.5 °F - 74.5 °F 94% 29.91 in 10.0 mi Calm Calm - N/A   Clear